This demonstration page uses our WeatherBlox Daily Observations layout. Learn more.

Left ArrowRight Arrow

Hourly Observations for May 25, 2015

Temp ( °F °C ) Dew Point ( °F °C ) Humidity (%) Winds ( mph kmh ) Pressure ( in mb ) Visibility ( mi km ) Precip ( " mm )
12:51 am 00:51 Clear 58 14.4 28 -2.2 32 32 SW 3 6 29.80 1009 10 16 0.00 0.00
1:51 am 01:51 Clear 56 13.3 31 -0.6 39 39 NW 5 7 29.80 1009 10 16 0.00 0.00
2:51 am 02:51 Clear 54 12.2 31 -0.6 42 42 SE 3 6 29.82 1010 10 16 0.00 0.00
3:51 am 03:51 Clear 54 12.2 35 1.7 49 49 SE 3 6 29.83 1010 10 16 0.00 0.00
4:51 am 04:51 Clear 51 10.6 33 0.6 50 50 SE 5 7 29.84 1011 10 16 0.00 0.00
5:51 am 05:51 Sunny 53 11.7 32 0 45 45 SSE 5 7 29.85 1011 10 16 0.00 0.00
6:51 am 06:51 Sunny 59 15 35 1.7 41 41 Calm 29.86 1011 10 16 0.00 0.00
7:51 am 07:51 Sunny 63 17.2 34 1.1 34 34 VRB 3 6 29.87 1012 10 16 0.00 0.00
8:51 am 08:51 Sunny 69 20.6 34 1.1 27 27 VRB 5 7 29.86 1011 10 16 0.00 0.00
9:51 am 09:51 Sunny 75 23.9 34 1.1 22 22 VRB 6 9 29.85 1011 10 16 0.00 0.00
10:51 am 10:51 Sunny 78 25.6 32 0 19 19 NNW 8 13 29.84 1011 10 16 0.00 0.00
11:51 am 11:51 Sunny 81 27.2 32 0 17 17 WNW 13 20 29.82 1010 10 16 0.00 0.00
12:51 pm 12:51 Sunny 83 28.3 30 -1.1 15 15 W 10 17 29.81 1009 10 16 0.00 0.00
1:51 pm 13:51 Sunny 84 28.9 32 0 15 15 W 9 15 29.79 1009 10 16 0.00 0.00
2:51 pm 14:51 Sunny 87 30.6 33 0.6 14 14 WNW 17 28 29.77 1008 10 16 0.00 0.00
3:51 pm 15:51 Sunny 85 29.4 29 -1.7 13 13 NW 15 24 29.76 1008 10 16 0.00 0.00
4:51 pm 16:51 Sunny 85 29.4 32 0 15 15 NW 17 28 29.76 1008 10 16 0.00 0.00
5:51 pm 17:51 Sunny 83 28.3 33 0.6 17 17 W 17 28 29.76 1008 10 16 0.00 0.00
6:51 pm 18:51 Sunny 80 26.7 32 0 17 17 WNW 17 28 29.77 1008 10 16 0.00 0.00
7:51 pm 19:51 Clear 77 25 32 0 19 19 WNW 14 22 29.79 1009 10 16 0.00 0.00
8:51 pm 20:51 Clear 73 22.8 33 0.6 23 23 NW 10 17 29.80 1009 10 16 0.00 0.00
9:51 pm 21:51 Clear 72 22.2 34 1.1 25 25 WNW 9 15 29.82 1010 10 16 0.00 0.00
10:51 pm 22:51 Clear 69 20.6 35 1.7 29 29 NNW 9 15 29.83 1010 10 16 0.00 0.00
11:51 pm 23:51 Clear 66 18.9 34 1.1 30 30 NNE 3 6 29.83 1010 10 16 0.00 0.00

Powered by AerisWeather